Weather in Izhmorka-Vtoraya

Russia / Kemerovo Oblast     56°09′15″N   86°37′40″E
temp.,
°C
wind,
m/s
gust,
m/s
humid.,
%
clouds,
%
prec.,
mm/h
press.,
hPa
HPBL,
m
20 january, wed
wed2001:00−26w3798100 0.1 1023149
04:00−28w3499100 0.0 102660
07:00−31wsw239979 0.0 102922
10:00−32wsw229813 0.0 103019
13:00−27wsw12927 0.0 1031182
16:00−27wsw019425 0.0 103119
19:00−30ese119612 0.0 103319
22:00−30ese22960 0.0 103120
21 january, thu
thu2101:00−30e239716 0.0 103127
04:00−28e369679 0.0 1028150
07:00−25e379490 0.0 1025197
10:00−23e3694100 0.0 1022200
13:00−19ese2396100 0.3 1020183
16:00−15s1495100 0.2 1018270
19:00−15sw3896100 0.3 1017250
22:00−16sw3896100 0.0 1016206
22 january, fri
fri2201:00−17sw2497100 0.1 101599
04:00−17sw2496100 0.0 101392
07:00−16sw1196100 0.0 101020
10:00−15nw1197100 0.8 100961
13:00−14w1293100 1.4 1008240
16:00−14w259599 0.1 1009331
19:00−16w379699 0.1 1012246
22:00−21w3799100 0.0 1014143
23 january, sat
sat2301:00−23wsw3798100 0.0 1018137
04:00−24sw4895100 0.0 1021234
07:00−26sw5109491 0.0 1023267
10:00−24sw61293100 0.1 1025465
13:00−22sw61192100 0.2 1027621
16:00−21sw5991100 0.1 1028688
19:00−22sw41094100 0.2 1030607
22:00−22sw3995100 0.1 1030513
24 january, sun
sun2401:00−23sw389699 0.1 1031367
04:00−22sw3797100 0.1 1031387
07:00−23sw2499100 0.2 1032136
10:00−24wsw2599100 0.1 1033190
13:00−24w3595100 0.3 1035455
16:00−26wnw4595100 0.1 1037419
19:00−32wnw4796100 0.1 1041249
22:00−39w349787 0.0 104463